CZ-6A DEB, 61309

Orbit data source: Space-Track

CZ-6A DEB, 61309 is space debris in LEO originally from a launch on Tue, 06 Aug 2024 UTC launched from the Taiyaun Space Center, China (TSC). Debris objects in space refer to the collection of defunct objects orbiting the Earth. Examples of debris include non-operational satellites, rocket bodies, and fragments generated from explosions, collisions, or faulty payload assembly.

Loading next visibility...
Identifier
61309, 2024-140TW
Orbit
LEO
Country
Flag of CNCN / PRC
Related business
Manufacturer
SAST
Mission
Spacecraft
Bus & Motor
Unknown
Mass
Unknown
Launch date (UTC)
2024-08-06 (2 years ago)
Launch vehicle
Unknown
Launch site
Taiyaun Space Center, China (TSC)
Object type
Payload
Rocket body
Debris
Shape & HBR
Unknown shape, 0.1 m
Radar Cross Section
Small (<0.1 m²)

Expand to show TLE details & history
Last TLE update: 9 hours ago

TLE from 9 hours ago
0 CZ-6A DEB
1 61309U 24140TW  26118.39593948  .00003200  00000-0  12325-2 0  9998
2 61309  88.9722 277.6615 0020343 307.2870  52.6471 14.30011695 86795
Epoch: 2026-04-28T09:30Z
TLE epoch observation values (Epoch: 2026-04-28T09:30:09.171Z)
Latitude
0.00006°
Longitude
-81.24857°
Altitude
785.926 km
Speed
7.465 km/s
True Right ascension
18h 30m 38s
True Declination
0° 00' 00"
Sunlit
Object was in partial shadow at epoch
Visualization orbit readout
Latitude
Unknown
Longitude
Unknown
Altitude
Unknown
Speed
Unknown
Apparent Right ascension
Unknown
Apparent Declination
Unknown
Sunlit
N/A
Visualization observer readout
Local Sidereal Time
02:18:55
Azimuth
Unknown
Elevation
Unknown
Doppler factor
Unknown
Orbital elements
Apogee altitude
803.208 km
Perigee altitude
774.049 km
Semi-major axis
7,166.766 km
Eccentricity
0.00203
Inclination
88.9722°
RAAN
277.6615°
Arg. of periapsis
307.287°
True anomaly
52.83269°
Mean anomaly
52.6471°
Eccentric anomaly
52.73987°
Mean motion
3.57732 °/min
Orbital period
100.63 mins
BSTAR
0.0012325
Loading maneuver chart data...
Computing Atmospheric mass density...
Loading historical data...
Loading historical data...
Loading historical data...
Loading historical data...
Loading historical data...
Loading historical data...
Loading historical data...

Documentation

Showing up to 5 results
|